NOAA 5

Satellite information

Favourite Embed

Satellite Type and Status

PAYLOADIN ORBIT

Key statistics

Satellite NOAA 5 at a glance.

Uptime

18034

Days in orbit

Revolutions

≈ 12.4

Per day

Orbit

SSO

Sun Synchronous Orbit

Inclination

102.3

Latest

Satellite identification and parameters

Extended collection of information and parameters for NOAA 5.

Object identification

Identified? True

Debris? False

Object name: NOAA 5

International designator: 1976-077A

Object number (NORAD): 9057

Object ID (CCSDS): 9057

Country: UNITED STATES OF AMERICA (US)

Current information (Y/N): Y

RCS size: LARGE

Orbital parameters

Period: 116.333 minutes

Inclination: 102.2828 deg

SMA: 7893.973 km

Apoapsis: 1523.692 km

Periapsis: 1507.984 km

RAAN: 326.0146 deg

Eccentricy: 0.0009949

Argument of periapsis: 323.5685 deg

Mean anomaly: 91.726 deg

Mean motion: 12.37825143 rev/day

Mean motion (dot): -0.00000017 rev/day2

B* drag term: 0.00022639 1/REarth

Two-line elements (TLE)

Creation date: Dec. 12, 2025, 7:16 a.m.

Reference frame: TEME

Reference center: EARTH

Epoch: Dec. 11, 2025, 9:45 p.m. UTC

TLE line 0: 0 NOAA 5

TLE line 1: 1 9057U 76077A 25345.90692352 -.00000017 00000-0 22639-3 0 9997

TLE line 2: 2 9057 102.2828 326.0146 0009949 323.5685 91.7260 12.37825143231301

Live tracking on map

Real-time ground track for satellite NOAA 5.

In-orbit conjunctions

There are no conjunctions computed for NOAA 5, at the moment. Check back to stay up to date, as we update our databases every day.

Go to all conjunctions

Associated space launch

Meteorological satellite using radiometric imaging

NOAA 5 was lifted into orbit during the mission ‘Delta 2310 | NOAA 5’, on board a Delta 2310 space rocket.

The launch took place on July 29, 1976, 5:07 p.m. from Space Launch Complex 2W.

For more information about the launch, click the button.

Launch to space Delta 2310 | NOAA 5
Delta 2310 | NOAA 5

Agency: N/A

Status: Launch Successful

Launch date: July 29, 1976, 5:07 p.m. UTC

Rocket: Delta 2310

Launch pad: Space Launch Complex 2W

Location: Vandenberg SFB, CA, USA

...

Latest news about this satellite

There are no fresh news available about this satellite. Check back as we update our databases every day.


Newsletter sign-up

Weekly statistics, charts and insights to help you stay on top of the space industry.